Torna al catalogo

ATLAS 5 CENTAUR DEB

LostHEO
NORAD 46851·DEBRIS·🇺🇸 United States

Lanciato Oct 17, 2018 da Cape Canaveral Space Force Station

Loading…

Prossimi Passaggi (prossime 24 ore)

TLE

ObsoletoSource: Space-Track

Epoca: Jan 16, 2021, 19:40 UTC

1 46851U 18079DG  21016.82004696 -.00000086  00000-0  00000+0 0  9998
2 46851  11.1242 241.6438 4031806 326.6431  13.4583  1.96853897  1508

Traccia ATLAS 5 CENTAUR DEB in tempo reale con AllMySat

Download on the App Store